This is the latest recevied weather packets stored in our database for station/object KB1QVF. If no packets are shown the sender has not sent any weather packets the latest 10 day(s).
| Time | Temp. | Humidity | Pressure | Rain* | Wind** | Luminosity | Snow |
|---|---|---|---|---|---|---|---|
| 1777640299 | 9.44° C | 70% | 1012.6 hPa | 0 mm | - | 327 W/m² | - |
| 1777639995 | 10° C | 70% | 1012.4 hPa | 0 mm | - | 218 W/m² | - |
| 1777639693 | 8.89° C | 72% | 1012.4 hPa | 0 mm | - | 422 W/m² | - |
| 1777639391 | 8.89° C | 71% | 1012.3 hPa | 0 mm | - | 411 W/m² | - |
| 1777639090 | 8.89° C | 74% | 1012.8 hPa | 0 mm | - | 322 W/m² | - |
| 1777638788 | 8.33° C | 75% | 1012.5 hPa | 0 mm | - | 143 W/m² | - |
| 1777638483 | 7.22° C | 79% | 1012.3 hPa | 0 mm | - | 282 W/m² | - |
| 1777638181 | 7.22° C | 79% | 1012.5 hPa | 0 mm | - | 102 W/m² | - |
| 1777637875 | 7.78° C | 80% | 1012.4 hPa | 0 mm | - | 108 W/m² | - |
| 1777637573 | 7.78° C | 81% | 1012.5 hPa | 0 mm | - | 122 W/m² | - |
| 1777637270 | 7.78° C | 83% | 1012.6 hPa | 0 mm | - | 152 W/m² | - |
| 1777636967 | 7.22° C | 82% | 1012.4 hPa | 0 mm | - | 149 W/m² | - |
| 1777636663 | 7.22° C | 82% | 1012.5 hPa | 0 mm | - | 132 W/m² | - |
| 1777636359 | 7.22° C | 82% | 1012.5 hPa | 0 mm | - | 126 W/m² | - |
| 1777636058 | 7.22° C | 80% | 1012.4 hPa | 0 mm | - | 121 W/m² | - |
| 1777635755 | 7.78° C | 81% | 1012.5 hPa | 0 mm | - | 122 W/m² | - |
| 1777635452 | 7.22° C | 83% | 1012.2 hPa | 0 mm | - | 101 W/m² | - |
| 1777635149 | 7.22° C | 83% | 1012.1 hPa | 0 mm | - | 101 W/m² | - |
| 1777634845 | 7.22° C | 84% | 1012.2 hPa | 0 mm | - | 98 W/m² | - |
| 1777634542 | 6.67° C | 85% | 1012 hPa | 0 mm | - | 106 W/m² | - |
| 1777634239 | 6.67° C | 87% | 1012.4 hPa | 0 mm | - | 100 W/m² | - |
| 1777633935 | 6.11° C | 88% | 1012.3 hPa | 0 mm | - | 46 W/m² | - |
| 1777633633 | 6.11° C | 89% | 1012.1 hPa | 0 mm | - | 59 W/m² | - |
| 1777633331 | 6.11° C | 90% | 1012.1 hPa | 0 mm | - | 30 W/m² | - |
| 1777633028 | 5.56° C | 91% | 1011.9 hPa | 0 mm | - | 48 W/m² | - |
* Rain latest hour (hover to see other rain measurements)
** Current wind speed in m/s (hover to see current wind gust speed)